Terug naar catalogus

DELTA 1 DEB

ActiefSSO
NORAD 14909·DEBRIS·🇺🇸 United States

Gelanceerd Mar 5, 1978 vanaf Vandenberg Space Force Base

Loading…

Volgende Passages (komende 24 uur)

TLE

VersSource: Space-Track

Epoch: Sep 14, 2026, 01:42 UTC

1 14909U 78026GJ  26257.07134528  .00001843  00000-0  10533-2 0  9998
2 14909  98.7120 301.0088 0130328 312.1792  76.2211 14.06614477258693

Volg DELTA 1 DEB in realtime met AllMySat

Download on the App Store